User: anonymous   Login
Location: Unspecified
(0.0000°N, 0.0000°E)
Time: 19:25:56
(UTC+01:00)
Language:

Ariane H10 - Orbit

View from above orbital plane
View from above orbital plane
View from above satellite
View from above satellite

Ground track
Ground track

The orbit data is extracted from the following two-line orbital elements,

1 21727U 91067B   15023.09787378  .00000324  00000-0  11150-2 0  3456
2 21727 004.4702 333.6650 7192719 156.0362 352.9460 02.31483612157623
Epoch (UTC): 23 January 2015 02:20:56
Eccentricity: 0.7192719
inclination: 4.4702°
perigee height: 398 km
apogee height: 35123 km
right ascension of ascending node: 333.6650°
argument of perigee: 156.0362°
revolutions per day: 2.31483612
mean anomaly at epoch: 352.9460°
orbit number at epoch: 15762

The dashed part of the orbit path shows where the satellite is in the earth's shadow,  

DLR